Weather in Chuyevo-Alabushka

Russia / Tambov Oblast     51°51′14″N   42°05′59″E
temp.,
°C
wind,
m/s
gust,
m/s
humid.,
%
clouds,
%
prec.,
mm/h
press.,
hPa
HPBL,
m
27 february, sat
sat2700:00+2wnw61297100 0.0 1007407
03:00+1w61394100 0.1 1007369
06:00+1w7149295 0.0 1006590
09:00+1wnw7139497 0.0 1006763
12:00+1wnw8149795 0.1 1005857
15:00+1wnw8149895 0.1 1006806
18:00−3nnw7148599 0.1 1008741
21:00−7nnw5128950 0.1 1010474
28 february, sun
sun2800:00−8nw499331 0.0 1011448
03:00−9nw489326 0.0 1013387
06:00−10nnw37930 0.0 1014306
09:00−10nnw46910 0.0 1015370
12:00−8nnw358873 0.0 1016427
15:00−7nw358985 0.0 1016474
18:00−8nw369499 0.0 1017320
21:00−8nnw249593 0.1 1019177
1 march, mon
mon100:00−9n239585 0.0 102066
03:00−10n229463 0.0 102130
06:00−11n22930 0.0 102223
09:00−10nnw22920 0.0 1024113
12:00−7nw228725 0.0 1025341
15:00−6nw238862 0.0 1025403
18:00−8wnw229489 0.0 102530
21:00−8sw239457 0.0 102630
2 march, tue
tue200:00−6wsw489687 0.1 1024233
03:00−4wsw5129093 0.1 1022450
06:00−3wsw61392100 0.0 1019433
09:00−2wsw81593100 0.1 1016571
12:000wsw81497100 0.8 1012783
15:00+1w81498100 2.1 1009701
18:000nw71397100 0.8 1008654
21:00−1nw71394100 0.9 1009618
3 march, wed
wed300:00−2nw6139493 0.1 1010601
03:00−2nw6119294 0.3 1011748
06:00−3nw61194100 0.1 1011594
09:00−3nw6119397 0.3 1013698
12:00−3nw7108596 0.1 1015869
15:00−3nnw7108798 0.1 1016792
18:00−3nnw71283100 0.1 1018778
21:00−5nw5129089 0.1 1019368